Culiacan, Mexico

11:09 AM MDT on September 23, 2017 (GMT -0600)
Culiacan International

Weather History for MMCL - February, 2013

Change the Weather History Date:

Friday, February 15, 2013

  Actual Average Record
Temperature  
Mean Temperature 62 °F -  
Max Temperature 80 °F 82 °F 91 °F (2016)
Min Temperature 43 °F 54 °F 43 °F (2013)
Degree Days  
Heating Degree Days 4    
Growing Degree Days 12 (Base 50)    
Moisture  
Dew Point 50 °F    
Average Humidity 56    
Maximum Humidity 100    
Minimum Humidity 19    
Precipitation  
Precipitation 0.00 in - - ()
Sea Level Pressure  
Sea Level Pressure 29.97 in    
Wind  
Wind Speed 1 mph ()    
Max Wind Speed 13 mph    
Max Gust Speed -    
Visibility 9.8 miles    
Events      
Averages and records for this station are not official NWS values.
T = Trace of Precipitation, MM = Missing Value Source: Averaged Metar Reports

Daily Weather History Graph

Daily Weather History Graph

Search for Another Location

Airport or City:

Trip Planner

Search our weather history database for the weather conditions in past years. The results will help you decide how hot, cold, wet, or windy it might be!

Date:

Astronomy

Feb. 15, 2013 Rise Set
Actual Time 6:43 AM MST 6:04 PM MST
Civil Twilight 6:20 AM MST 6:27 PM MST
Nautical Twilight 5:53 AM MST 6:54 PM MST
Astronomical Twilight 5:26 AM MST 7:21 PM MST
Moon 10:02 AM MST (2/15) 11:23 PM MST (2/15)
Length of Visible Light 12h 07m
Length of Day
11h 20m
Waxing Crescent, 31% of the Moon is Illuminated
Feb 15
Waxing Crescent
Feb 17
First Quarter
Feb 25
Full
Mar 4
Last Quarter
Mar 11
New

Hourly Weather History & Observations

Time (MST) Temp. Dew Point Humidity Pressure Visibility Wind Dir Wind Speed Gust Speed Precip Events Conditions
2:55 AM 51.8 °F 51.8 °F 100% 29.94 in 10.0 mi Calm Calm - N/A   Clear
6:01 AM 51.8 °F 48.2 °F 88% 29.96 in 10.0 mi Calm Calm - N/A   Scattered Clouds
6:40 AM 53.6 °F 48.2 °F 82% 29.97 in 10.0 mi Calm Calm - N/A   Scattered Clouds
7:35 AM 52 °F 49 °F 85% 30.02 in 10 mi Calm Calm - -   Haze
7:46 AM 57.2 °F 48.2 °F 72% 30.00 in 10.0 mi Calm Calm - N/A   Mostly Cloudy
8:42 AM 64.4 °F 48.2 °F 56% 29.99 in 10.0 mi Calm Calm - N/A   Overcast
9:40 AM 66.2 °F 51.8 °F 60% 30.02 in 10.0 mi Calm Calm - N/A   Overcast
10:41 AM 66.2 °F 53.6 °F 64% 30.03 in 10.0 mi Calm Calm - N/A   Overcast
10:50 AM 63 °F 53 °F 63% 30.03 in 10 mi NW 2.2 mph - -   Haze
11:40 AM 73.4 °F 53.6 °F 50% 30.00 in 10.0 mi Calm Calm - N/A   Mostly Cloudy
12:40 PM 77.0 °F 44.6 °F 32% 29.96 in 10.0 mi Calm Calm - N/A   Overcast
1:43 PM 82.4 °F 46.4 °F 28% 29.97 in 10.0 mi WSW 5.8 mph - N/A   Overcast
1:50 PM 81 °F 46 °F 19% 29.95 in 10 mi West 2.2 mph - -   Haze
2:40 PM 84.2 °F 48.2 °F 29% 29.92 in 10.0 mi NNW 5.8 mph - N/A   Overcast
3:42 PM 82.4 °F 50.0 °F 32% 29.91 in 10.0 mi NNW 9.2 mph - N/A   Overcast
4:44 PM 80.6 °F 51.8 °F 37% 29.92 in 10.0 mi WNW 9.2 mph - N/A   Overcast
4:50 PM 80 °F 50 °F 24% 29.88 in 10 mi West 2.2 mph - -   Haze
5:42 PM 77.0 °F 50.0 °F 39% 29.94 in 10.0 mi Calm Calm - N/A   Mostly Cloudy
6:45 PM 68.0 °F 53.6 °F 60% 29.96 in 10.0 mi Calm Calm - N/A   Mostly Cloudy
7:45 PM 66.2 °F 53.6 °F 64% 29.99 in 10.0 mi Calm Calm - N/A   Scattered Clouds
7:50 PM 66 °F 53 °F 54% 29.95 in 6 mi WNW 13.4 mph - -   Partly Cloudy
8:45 PM 62.6 °F 53.6 °F 72% 29.97 in 10.0 mi Calm Calm - N/A   Partly Cloudy
9:45 PM 60.8 °F 53.6 °F 77% 29.99 in 10.0 mi Calm Calm - N/A   Clear